Location: Cheching
(60.0667°N, 164.2167°W)
Time: 22:00:12
(UTC+00:00)

NOAA 15 - Pass Details

Date: 02 February 2021
Orbit: 798 x 812 km, 98.7° (Epoch: 07 March)

Event Time Altitude Azimuth Distance (km) Brightness Sun altitude
Rises 17:43:30 0° 20° (NNE) 3,349 7.9 -10.3°
Reaches altitude 10° 17:46:13 10° 33° (NNE) 2,414 7.3 -10.0°
Maximum altitude 17:50:43 27° 90° (E) 1,527 7.0 -9.5°
Drops below altitude 10° 17:55:11 10° 148° (SSE) 2,401 7.9 -8.9°
Sets 17:57:52 0° 160° (SSE) 3,328 8.4 -8.6°
